Regional Weather Roundup
Issued by NWS Portland, ME

Home | Current Version | Previous Version | Text Only | Print | Product List | Glossary On
Versions: 1 2 3 4 5 6 7 8 9 10 11 12 13 14 15 16 17 18 19 20 21 22 23 24 25 26 27 28 29 30 31 32 33 34 35 36 37 38 39 40 41 42 43 44 45 46 47 48 49 50
000
ASUS41 KGYX 260910
RWRGYX
WEATHER ROUNDUP FOR MAINE AND NEW HAMPSHIRE
NATIONAL WEATHER SERVICE GRAY ME
500 AM EDT THU MAY 26 2016

MEZ002-005-006-010-012-015-018-020-021-024-026-027-029-261000-
MAINE

CITY           SKY/WX    TMP DP  RH WIND       PRES   REMARKS
PORTLAND       CLOUDY    57  55  93 NW5       30.04R
SANFORD        CLOUDY    50  46  87 CALM      30.05R
BAR HARBOR     CLEAR     57  53  86 NW5       29.99R
WISCASSET      CLEAR     51  49  92 CALM      30.04R
ROCKLAND       PTCLDY    59  52  77 NW5       30.02R
FRYEBURG       CLOUDY    52  52 100 CALM      30.06R FOG
LEWISTONAUBURN CLEAR     57  50  77 N7        30.05R
AUGUSTA        CLEAR     56  53  90 N9        30.03R
WATERVILLE     CLEAR     57  50  77 N8        30.01R
BANGOR         CLEAR     58  50  75 W8        30.01R
GREENVILLE       N/A     52  46  80 NW8       30.01R
MILLINOCKET    CLEAR     55  49  80 NW5       30.01R
HOULTON        CLOUDY    57  52  83 NW8       29.96R
PRESQUE ISLE   CLOUDY    53  48  83 NW13G22   30.02R
FRENCHVILLE    CLOUDY    47  43  86 N17G25    30.00R
CARIBOU        CLOUDY    51  48  89 N10       30.00R
$$

NHZ002-005-008-009-011-012-014-261000-
NEW HAMPSHIRE

CITY           SKY/WX    TMP DP  RH WIND       PRES   REMARKS
PORTSMOUTH     MOCLDY    60  54  81 W3        30.03R
ROCHESTER      MOCLDY    59  53  80 NW5       30.03R
NASHUA         CLEAR     59  56  89 CALM      30.07R
MANCHESTER     MOCLDY    60  54  80 S3        30.04R
CONCORD        CLEAR     56  53  90 NE3       30.06R
LACONIA        CLOUDY    58  55  90 CALM      30.07R
PLYMOUTH       FAIR      52  51  97 CALM      30.07R FOG
BERLIN         CLEAR     48  44  86 CALM      30.10R FOG
WHITEFIELD     CLOUDY    45  42  89 CALM      30.11R FOG
JAFFREY        CLEAR     53  51  93 CALM      30.10R FOG
KEENE          PTCLDY    54  52  94 CALM      30.10R
LEBANON        MOCLDY    55  52  89 CALM      30.09R
MT WASHINGTON  FOG       41  41 100 W44         N/A  VSB 1/16
$$

VTZ005-007-008-261000-
VERMONT

CITY           SKY/WX    TMP DP  RH WIND       PRES   REMARKS
ST JOHNSBURY     N/A     52  49  89 MISG      30.09R
MONTPELIER     FAIR      53  51  93 CALM      30.14R
BURLINGTON     FAIR      56  51  84 CALM      30.10R
$$

MAZ007-012-024-CTZ003-RIZ002-NYZ038-NYZ072-261000-
SOUTHERN NEW ENGLAND AND NY

CITY           SKY/WX    TMP DP  RH WIND       PRES   REMARKS
BOSTON         MOCLDY    69  54  58 W7        30.04R
WORCESTER      CLEAR     64  51  62 W8        30.09R
NANTUCKET      CLEAR     61  52  72 W6        30.05R
PROVIDENCE     CLEAR     65  52  62 W7        30.07R
HARTFORD       CLOUDY    62  54  74 E3        30.06R
ALBANY         PTCLDY    59  54  83 N3        30.08R
NEW YORK CITY  PTCLDY    74  55  51 CALM      30.06S
$$

ANZ081-ANZ082-ANZ150-NHZ014-MEZ023>029-261000-
COASTAL MARINE OBSERVATIONS

STATION/POSITION TIME  TEMP    WIND        PRES    WAVE
                       AIR SEA DIR/SP/G            HT/PER
                 (UTC) (F)     (DEG/KT/KT) (MB)    (FT/S)
MOUNT DESERT ROC 0900   57     290/ 19/ 19 1015.4R
MATINICUS ROCK   0900   58     320/ 15/ 15 1015.8R
ISLE OF SHOALS   0900   64     330/  7/  7 1016.9R
JEFFREYS LEDGE   0808      52                N/A     2/ 8
CASHES LEDGE BUO 0850   54 51  290/  6/  6 1016.0R   2/ 8
GEORGES BANK BUO 0850   53 49              1015.7R   4/ 8
$$

.............KEY..............
   WCI - WIND CHILL
   TC  - TEMPERATURE IN CELSIUS
   VSB - VISIBILITY IN MILES
   HX  - HEAT INDEX
   FAIR- INDICATES FEW OR NO CLOUDS BELOW 12,000 FT, WITH NO
         SIGNIFICANT WEATHER AND/OR OBSTRUCTIONS TO VISIBILITY.






USA.gov is the U.S. government's official web portal to all federal, state and local government web resources and services.